Regional Weather Roundup
Issued by NWS

Home | Current Version | Previous Version | Graphics & Text | Print | Product List | Glossary On
Versions: 1 2 3 4 5 6 7 8 9 10 11 12 13 14 15 16 17 18 19 20 21 22 23 24 25 26 27 28 29 30 31 32 33 34 35 36 37 38 39 40 41 42 43 44 45 46 47 48 49 50
000
ASUS43 KTOP 221008
RWRKS

WEATHER ROUNDUP FOR KANSAS
NATIONAL WEATHER SERVICE GOODLAND KS
400 AM CST SAT NOV 22 2014

NOTE:  "FAIR" INDICATES FEW OR NO CLOUDS BELOW 12,000 FEET WITH NO
SIGNIFICANT WEATHER AND/OR OBSTRUCTIONS TO VISIBILITY.

KSZ001>006-013>018-027>032-041>047-221100-
NORTHWEST KANSAS

CITY           SKY/WX    TMP DP  RH WIND       PRES   REMARKS
GOODLAND       CLEAR     36  20  52 SW10      29.91F WCI  28
HAYS           CLOUDY    34  28  80 S8        29.94F VSB 1/4
HILL CITY      PTCLDY    27  25  92 W5        29.91F FOG
RUSSELL        FOG       35  35 100 S14       29.94F VSB 1/4 WCI  26
$$

KSZ061>065-074>080-084>089-221100-
SOUTHWEST KANSAS

CITY           SKY/WX    TMP DP  RH WIND       PRES   REMARKS
DODGE CITY     CLEAR     34  31  88 S12       29.96F FOG     WCI  25
ELKHART          N/A    N/A N/A N/A MISG        N/A
GARDEN CITY    PTCLDY    30  29  96 SW7       29.93F FOG
GREAT BEND     CLOUDY    36  34  93 SW10      29.98F VSB 1   WCI  28
LIBERAL        CLEAR     32  27  80 S6        29.97F
PRATT          FOG       36  34  93 S5        29.99F VSB 3/4
$$

KSZ066>073-081>083-090>101-221100-
SOUTHEAST KANSAS

CITY           SKY/WX    TMP DP  RH WIND       PRES   REMARKS
CHANUTE        CLOUDY    54  54 100 S17       30.03F FOG
COFFEYVILLE    CLOUDY    56  53  90 S16       30.05F
HUTCHINSON     FOG       42  40  92 S8        29.99F VSB 1/2
MEDICINE LODGE   N/A     41  41 100 CALM      29.99F
NEWTON         CLOUDY    43  37  81 S7        30.01F
PARSONS        CLOUDY    55  55 100 S10       30.05F FOG
WICHITA INTL   CLOUDY    44  44 100 S5        30.00F FOG
WICHITA JABRA  CLOUDY    44  43  96 CALM      30.01F
WICHITA MCCONL CLOUDY    43  43 100 S6        30.01F FOG
WINFIELD       FOG       46  46 100 NW3       30.03F VSB 1/2
$$

KSZ007>012-019>026-033>040-048>060-102>105-221100-
NORTHEAST KANSAS

CITY           SKY/WX    TMP DP  RH WIND       PRES   REMARKS
CONCORDIA      FOG       38  38 100 S12       29.94F VSB 1/2 WCI  30
EMPORIA        FOG       48  48 100 S6        30.00F VSB 1/2
LAWRENCE       CLOUDY    52  51  97 SW7       30.00F FOG
MANHATTAN      CLOUDY    43  42  97 SW12      29.99F FOG
MARYSVILLE     CLOUDY    39  39 100 SW7       29.96F FOG
OLATHE IND     CLOUDY    51  51 100 S10       30.01F FOG
OLATHE EXE     CLOUDY    51  51 100 S10       29.99F FOG
SALINA         CLOUDY    41  40  96 S6        29.98F FOG
TOPEKA BILLARD FOG       42  42 100 CALM      30.01F VSB 3/4
TOPEKA FORBES  CLOUDY    48  47  96 SW8       29.99F FOG
$$


USA.gov is the U.S. government's official web portal to all federal, state and local government web resources and services.